Regional Weather Roundup
Issued by NWS Boston, MA

Home | Current Version | Previous Version | Text Only | Print | Product List | Glossary On
Versions: 1 2 3 4 5 6 7 8 9 10 11 12 13 14 15 16 17 18 19 20 21 22 23 24 25 26 27 28 29 30 31 32 33 34 35 36 37 38 39 40 41 42 43 44 45 46 47 48 49 50
000
ASUS41 KBOX 260410
RWRBOX

REGIONAL WEATHER ROUNDUP
NATIONAL WEATHER SERVICE TAUNTON MA
1200 AM EDT MON JUN 26 2017

NOTE:  "FAIR" INDICATES FEW OR NO CLOUDS BELOW 12,000 FEET WITH NO
SIGNIFICANT WEATHER AND/OR OBSTRUCTIONS TO VISIBILITY.

MAZALL-260500-
EASTERN MASSACHUSETTS

CITY           SKY/WX    TMP DP  RH WIND       PRES   REMARKS
BOSTON         MOCLDY    67  56  67 W8        29.93S
BEVERLY        CLOUDY    62  60  93 W7        29.92F
LAWRENCE         N/A     64  61  90 SW5       29.94F
BEDFORD        LGT RAIN  62  58  86 SW9       29.95R
BLUE HILL        N/A     61  55  81 W10       29.94S
NORWOOD        MOCLDY    64  58  80 W3        29.94S
MARSHFIELD     CLEAR     63  61  94 CALM      29.93S
PLYMOUTH       CLEAR     64  58  80 CALM      29.94F
TAUNTON        CLEAR     60  57  89 CALM      29.94R
NEW BEDFORD    PTCLDY    63  56  78 NW3       29.93R
$$

MAZALL-260500-
CAPE COD AND THE ISLANDS

CITY           SKY/WX    TMP DP  RH WIND       PRES   REMARKS
FALMOUTH       CLOUDY    66  63  88 W10G18    29.95R
HYANNIS        MOCLDY    69  59  70 W9        29.92S
CHATHAM        PTCLDY    68  62  81 W5        29.93F
PROVINCETOWN   PTCLDY    63  57  81 W8        29.94R
NANTUCKET        N/A     62  62 100 SW7       29.94F
MARTHAS VNYRD  MOCLDY    67  60  78 SW5       29.93F
$$

MAZALL-260500-
CENTRAL AND WESTERN MASSACHUSETTS

CITY           SKY/WX    TMP DP  RH WIND       PRES   REMARKS
WORCESTER      CLOUDY    59  57  93 SW9       29.99R
FITCHBURG      CLOUDY    64  60  87 VRB3      29.97R
ORANGE         MOCLDY    60  59  96 CALM      29.99R
SPRINGFIELD    CLOUDY    62  60  91 N5        29.97R
WESTFIELD      PTCLDY    63  57  81 N7          N/A
NORTH ADAMS    LGT RAIN  57  56  96 CALM      29.99F
PITTSFIELD     LGT RAIN  56  53  90 SW5       29.99F
$$

RIZALL-260500-
RHODE ISLAND

CITY           SKY/WX    TMP DP  RH WIND       PRES   REMARKS
PROVIDENCE     PTCLDY    68  60  75 NW6       29.95R
NEWPORT        PTCLDY    67  60  78 CALM      29.93S
BLOCK ISLAND   PTCLDY    67  60  78 SW12      29.94F
WESTERLY       CLEAR     66  61  84 CALM      29.94F
$$

CTZALL-260500-
CONNECTICUT

CITY           SKY/WX    TMP DP  RH WIND       PRES   REMARKS
BRADLEY INTL   MOCLDY    64  57  78 N10       29.98R
HARTFORD       MOCLDY    67  58  72 N10       29.95S
BRIDGEPORT     PTCLDY    71  61  70 SW5       29.94S
DANBURY        PTCLDY    66  55  67 N10       30.00R
GROTON         CLEAR     67  60  78 SW3       29.93S
NEW HAVEN      NOT AVBL
CHESTER        MOCLDY    66  63  88 CALM      29.95S
MERIDEN        CLEAR     62  59  90 CALM      29.96R
WILLIMANTIC    PTCLDY    66  60  81 N6        29.96S
OXFORD         CLEAR     63  54  72 N7        29.98R
$$

MEZ002-015-021-024-NHZ003-005-008-011-012-014-VTZ005-008-260500-
NORTHERN NEW ENGLAND

CITY           SKY/WX    TMP DP  RH WIND       PRES   REMARKS
PORTLAND ME    LGT RAIN  66  55  67 W5        29.91R
BANGOR ME      CLOUDY    60  56  86 S3        29.87F
CONCORD NH     CLOUDY    68  51  54 S3        29.91S
MANCHESTER NH  CLOUDY    63  57  81 S7        29.92R
NASHUA NH      LGT RAIN  62  61  96 CALM      29.94S
PORTSMOUTH NH  CLOUDY    65  56  74 W6        29.89S
JAFFREY NH     CLOUDY    61  59  93 S8        29.99R
KEENE NH       MOCLDY    64  52  64 S3        29.97R
BURLINGTON VT  PTCLDY    60  54  80 S8        29.90S
MT. WASHINGTON PTCLDY    40  38  95 W37         N/A  WCI  27
$$

NYZ052-076-260500-
EASTERN NEW YORK

CITY           SKY/WX    TMP DP  RH WIND       PRES   REMARKS
ALBANY         CLOUDY    60  56  86 CALM      29.99R
NEW YORK CITY  MOCLDY    78  52  40 NW20G25   29.95R
$$

ANZALL-260500-
MARINE OBSERVATIONS

STATION/POSITION TIME  TEMP    WIND        PRES    VSBY  WAVE
                       AIR SEA DIR/SP/G                  HT/PER
                 (UTC) (F)     (DEG/KT/KT) (MB)    (MI)  (FT/S)
BOSTON BUOY      0350   60 58  240/  8/ 10 1013.0S         2/ 7
BUZZARDS BAY     0300   66     230/ 16/ 16 1013.9F
NANTUCKET SOUND  0350      67              1013.2F         1/ 6
MASS BAY-STELLWA 0304   64 61  290/ 14/ 16 1012.4R         2/ 3
ISLE OF SHOALS   0300   65     230/ 13/ 13 1012.6R
S OF BLOCK IS    0355      65                N/A           3/ 7
$$

......................KEY.........................
  SKY/WX - SKY CONDITION/PRESENT WEATHER
  TMP    - TEMPERATURE IN FAHRENHEIT
  DWPT   - DEWPOINT IN FAHRENHEIT
  RH     - RELATIVE HUMIDITY IN PERCENT
  WIND   - DIRECTION AND SPEED IN MPH
  PRES   - MEAN SEA LEVEL PRESSURE IN INCHES OF HG
  WCI    - WIND CHILL INDEX
  VSB    - VISIBILITY IN MILES
  HX     - HEAT INDEX
  TC     - TEMPERATURE IN CELSIUS
  VRB    - VARIABLE WIND DIRECTION
  N/A    - NOT AVAILABLE



USA.gov is the U.S. government's official web portal to all federal, state and local government web resources and services.